QZS-3 (MICHIBIKI-3) (42917 NORAD) Tracking and Keplerian Element Data

This shows tracking and keplerian element data for the satellite.

Feedback or suggestion? Click here.




ElementValue
Catalog42917
NameQZS-3 (MICHIBIKI-3)
Epoch Orbit2495
Epoch Day160.2348539
Epoch Year2024
RAAN159.2015
Inclination0.059
Eccentricity0.0001286
Argument of Perigee263.9086
Mean Anonmoly45.4966
Mean Motion1.00277182
Decay Rate-3.48E-06
L11 42917U 17048A 24160.23485390 -.00000348 00000+0 00000+0 0 9994
L22 42917 0.0590 159.2015 0001286 263.9086 45.4966 1.00277182 24955



Live tracking and technical data element details for QZS-3 (MICHIBIKI-3) (NORAD 42917). QZS-3 (MICHIBIKI-3) can be tracked NOW for your location showing map with azimuth and elevation plus other details from your city location.







IsCatalogInMostPopularTable: catalog: 42917, numindb: 873
Update: records affected: 1



GetName: 42917 QZS-3 (MICHIBIKI-3)

Hit Count: updated at: Tue, 17 Sep 2024 12:22:58 GMT